Astoria Regional Airport Astoria US
ICAO: KAST
IATA: AST
Category: Medium
Scheduled Services: No

Elevation: 15 ft
TransAlt. 18000 ft.

Airport Communications:
ASOS:135.375
SEATTLE CNTR:124.2
AIR CG:38.18
MC MINNVILLE RDO:122.3
CTAF/UNICOM:122.8

KAST Zoom In..

Runways:

(A) RW 08 length 5795 ft width 100 ft
---- / hdg 77

(B) RW 13 length 4996 ft width 100 ft
---- / hdg 135

(C) RW 26 length 5795 ft width 100 ft
ILS 109.50 / hdg 257

(D) RW 31 length 4996 ft width 100 ft
---- / hdg 315

Location; KAST
Day. 14 / Time. 00.55 Zulu
* Altimeter: 30.18
* Temperature: 18° c. 64.4°f.
* Wind from: 310° Speed 12 kn.
Dewpoint: 10° c.
Visibility: 10 Statute Miles.
Clouds: Clear (automated report).

KAST 140055Z AUTO 31012KT 10SM CLR 18/10 A3018 RMK AO2 SLP219 T01830100

Going to: --> -->


Wind From 310°
Speed 12 kn.

 
 
jpsmedia worldairports.se 2020   terms of use